Starlink 4051

operational
NORAD ID: 53273 Int'l Des: 2022-086 Owner: SPXS Country: US Constellation: starlink
LEOCIRCULAR

About Starlink 4051

Description loading...

Live Position

Loading 3D Globe...

Upcoming Passes

Altitude History

Altitude vs Time

uPlot chart will show altitude changes over time

Two-Line Element Set

1 53273U 22086AH 25353.81029899 -.00000427 00000-0 -87104-5 0 9992
2 53273 53.2161 182.7106 0001532 91.3582 268.7585 15.08839985189133
Epoch: Dec 19, 2025 • Age: 12 hours

Current Status

Altitude 541.5 km
Velocity 7.60 km/s
Sub-Earth Point 35.06°N, 132.42°E
Launch Date Jul 24, 2022
Age 3.4 years
Type internet

Technical Details

Classification Payload
Mass 297.00 kg
Dry Mass 275.00 kg
Total Mass 297.00 kg
Length 0.20 m
Diameter 2.80 m
Span 9.00 m
Shape Box + pan
Manufacturer SPXS
Bus Type Starlink
Phase Status In Orbit
Owner/State SPXS/US

Large Constellations

Loading constellations...